Time,TemperatureF,DewpointF,PressureIn,WindDirection,WindDirectionDegrees,WindSpeedMPH,WindSpeedGustMPH,Humidity,HourlyPrecipIn,Conditions,Clouds,dailyrainin,SoftwareType,DateUTC
2013-08-07 00:09:00,88.8,66.0,29.81,SSE,152,2.0,9.0,47,0.00,,,0.00,weatherlink.com 1.10,2013-08-07 05:09:00,
2013-08-07 00:24:00,88.4,66.0,29.81,SE,134,4.0,11.0,48,0.00,,,0.00,weatherlink.com 1.10,2013-08-07 05:24:00,
2013-08-07 00:39:00,88.3,67.0,29.81,South,188,4.0,13.0,49,0.00,,,0.00,weatherlink.com 1.10,2013-08-07 05:39:00,
2013-08-07 00:54:00,88.0,67.0,29.82,South,178,3.0,11.0,50,0.00,,,0.00,weatherlink.com 1.10,2013-08-07 05:54:00,
2013-08-07 01:09:00,86.8,68.0,29.82,SSE,165,2.0,9.0,53,0.00,,,0.00,weatherlink.com 1.10,2013-08-07 06:09:00,
2013-08-07 01:24:00,85.7,68.0,29.82,South,171,3.0,8.0,55,0.00,,,0.00,weatherlink.com 1.10,2013-08-07 06:24:00,
2013-08-07 01:39:00,85.5,68.0,29.81,SSW,213,4.0,11.0,56,0.00,,,0.00,weatherlink.com 1.10,2013-08-07 06:39:00,
2013-08-07 01:54:00,85.7,68.0,29.81,SSE,165,4.0,15.0,56,0.00,,,0.00,weatherlink.com 1.10,2013-08-07 06:54:00,
2013-08-07 02:09:00,85.7,69.0,29.81,SSE,152,3.0,10.0,57,0.00,,,0.00,weatherlink.com 1.10,2013-08-07 07:09:00,
2013-08-07 02:24:00,85.5,69.0,29.81,South,176,4.0,9.0,59,0.00,,,0.00,weatherlink.com 1.10,2013-08-07 07:24:00,
2013-08-07 02:39:00,85.3,70.0,29.81,South,170,6.0,9.0,60,0.00,,,0.00,weatherlink.com 1.10,2013-08-07 07:39:00,
2013-08-07 02:55:00,84.9,69.0,29.81,South,177,1.0,10.0,60,0.00,,,0.00,weatherlink.com 1.10,2013-08-07 07:55:00,
2013-08-07 03:10:00,84.5,70.0,29.81,SSE,166,3.0,8.0,61,0.00,,,0.00,weatherlink.com 1.10,2013-08-07 08:10:00,
2013-08-07 03:25:00,84.1,70.0,29.80,South,177,4.0,9.0,62,0.00,,,0.00,weatherlink.com 1.10,2013-08-07 08:25:00,
2013-08-07 03:40:00,83.8,70.0,29.80,South,180,4.0,9.0,64,0.00,,,0.00,weatherlink.com 1.10,2013-08-07 08:40:00,
2013-08-07 03:55:00,83.6,71.0,29.81,South,189,3.0,11.0,65,0.00,,,0.00,weatherlink.com 1.10,2013-08-07 08:55:00,
2013-08-07 04:10:00,83.0,72.0,29.81,SSW,201,6.0,11.0,69,0.00,,,0.00,weatherlink.com 1.10,2013-08-07 09:10:00,
2013-08-07 04:25:00,82.5,71.0,29.81,South,183,3.0,10.0,69,0.00,,,0.00,weatherlink.com 1.10,2013-08-07 09:25:00,
2013-08-07 04:40:00,82.2,71.0,29.81,South,184,4.0,8.0,69,0.00,,,0.00,weatherlink.com 1.10,2013-08-07 09:40:00,
2013-08-07 04:55:00,81.9,71.0,29.81,South,178,4.0,6.0,69,0.00,,,0.00,weatherlink.com 1.10,2013-08-07 09:55:00,
2013-08-07 05:10:00,81.4,70.0,29.81,South,184,6.0,7.0,69,0.00,,,0.00,weatherlink.com 1.10,2013-08-07 10:10:00,
2013-08-07 05:25:00,81.2,71.0,29.81,South,190,3.0,11.0,70,0.00,,,0.00,weatherlink.com 1.10,2013-08-07 10:25:00,
2013-08-07 05:40:00,80.9,70.0,29.81,SSE,163,0.0,9.0,70,0.00,,,0.00,weatherlink.com 1.10,2013-08-07 10:40:00,
2013-08-07 05:55:00,80.4,71.0,29.81,SSE,166,3.0,8.0,72,0.00,,,0.00,weatherlink.com 1.10,2013-08-07 10:55:00,
2013-08-07 06:10:00,79.9,71.0,29.81,South,173,4.0,7.0,73,0.00,,,0.00,weatherlink.com 1.10,2013-08-07 11:10:00,
2013-08-07 06:25:00,79.6,71.0,29.81,South,170,2.0,9.0,74,0.00,,,0.00,weatherlink.com 1.10,2013-08-07 11:25:00,
2013-08-07 06:40:00,79.4,71.0,29.81,SSE,157,2.0,7.0,75,0.00,,,0.00,weatherlink.com 1.10,2013-08-07 11:40:00,
2013-08-07 06:55:00,79.2,71.0,29.81,SSW,207,7.0,8.0,76,0.00,,,0.00,weatherlink.com 1.10,2013-08-07 11:55:00,
2013-08-07 07:10:00,79.1,72.0,29.82,South,176,5.0,9.0,78,0.00,,,0.00,weatherlink.com 1.10,2013-08-07 12:10:00,
2013-08-07 07:25:00,79.0,71.0,29.82,SE,133,5.0,12.0,77,0.00,,,0.00,weatherlink.com 1.10,2013-08-07 12:25:00,
2013-08-07 07:40:00,79.1,72.0,29.83,SE,135,4.0,9.0,78,0.00,,,0.00,weatherlink.com 1.10,2013-08-07 12:40:00,
2013-08-07 07:55:00,79.3,72.0,29.84,South,175,2.0,10.0,78,0.00,,,0.00,weatherlink.com 1.10,2013-08-07 12:55:00,
2013-08-07 08:10:00,79.5,72.0,29.83,SSE,166,2.0,8.0,78,0.00,,,0.00,weatherlink.com 1.10,2013-08-07 13:10:00,
2013-08-07 08:25:00,80.2,72.0,29.84,South,176,5.0,9.0,77,0.00,,,0.00,weatherlink.com 1.10,2013-08-07 13:25:00,
2013-08-07 08:40:00,81.1,73.0,29.85,SSE,168,3.0,9.0,76,0.00,,,0.00,weatherlink.com 1.10,2013-08-07 13:40:00,
2013-08-07 08:55:00,82.3,73.0,29.86,South,173,3.0,9.0,73,0.00,,,0.00,weatherlink.com 1.10,2013-08-07 13:55:00,
2013-08-07 09:10:00,83.0,74.0,29.85,South,173,2.0,9.0,73,0.00,,,0.00,weatherlink.com 1.10,2013-08-07 14:10:00,
2013-08-07 09:25:00,83.9,74.0,29.85,South,187,7.0,9.0,71,0.00,,,0.00,weatherlink.com 1.10,2013-08-07 14:25:00,
2013-08-07 09:40:00,84.7,73.0,29.86,SSW,194,4.0,8.0,69,0.00,,,0.00,weatherlink.com 1.10,2013-08-07 14:40:00,
2013-08-07 09:55:00,85.6,74.0,29.86,SSE,160,3.0,10.0,68,0.00,,,0.00,weatherlink.com 1.10,2013-08-07 14:55:00,
2013-08-07 10:10:00,86.3,74.0,29.86,South,177,3.0,9.0,66,0.00,,,0.00,weatherlink.com 1.10,2013-08-07 15:10:00,
2013-08-07 10:25:00,87.1,74.0,29.86,South,171,6.0,7.0,65,0.00,,,0.00,weatherlink.com 1.10,2013-08-07 15:25:00,
2013-08-07 10:40:00,87.8,74.0,29.86,South,171,2.0,12.0,63,0.00,,,0.00,weatherlink.com 1.10,2013-08-07 15:40:00,
2013-08-07 10:55:00,88.5,74.0,29.86,South,178,7.0,10.0,62,0.00,,,0.00,weatherlink.com 1.10,2013-08-07 15:55:00,
2013-08-07 11:10:00,89.5,74.0,29.85,SSE,165,3.0,12.0,60,0.00,,,0.00,weatherlink.com 1.10,2013-08-07 16:10:00,
2013-08-07 11:25:00,90.1,73.0,29.85,SSE,157,3.0,10.0,58,0.00,,,0.00,weatherlink.com 1.10,2013-08-07 16:25:00,
2013-08-07 11:40:00,90.9,74.0,29.85,South,174,4.0,10.0,58,0.00,,,0.00,weatherlink.com 1.10,2013-08-07 16:40:00,
2013-08-07 11:55:00,92.1,74.0,29.85,SSW,204,0.0,9.0,56,0.00,,,0.00,weatherlink.com 1.10,2013-08-07 16:55:00,
2013-08-07 12:11:00,93.0,74.0,29.85,SSE,161,3.0,9.0,54,0.00,,,0.00,weatherlink.com 1.10,2013-08-07 17:11:00,
2013-08-07 12:26:00,93.6,74.0,29.84,SW,221,5.0,7.0,53,0.00,,,0.00,weatherlink.com 1.10,2013-08-07 17:26:00,
2013-08-07 12:41:00,94.3,73.0,29.84,SSW,198,3.0,9.0,51,0.00,,,0.00,weatherlink.com 1.10,2013-08-07 17:41:00,
2013-08-07 12:56:00,94.9,73.0,29.83,SSE,166,4.0,9.0,50,0.00,,,0.00,weatherlink.com 1.10,2013-08-07 17:56:00,
2013-08-07 13:11:00,95.1,73.0,29.83,SSE,162,3.0,9.0,49,0.00,,,0.00,weatherlink.com 1.10,2013-08-07 18:11:00,
2013-08-07 13:26:00,96.1,72.0,29.82,SSE,161,4.0,11.0,46,0.00,,,0.00,weatherlink.com 1.10,2013-08-07 18:26:00,
2013-08-07 13:41:00,96.9,73.0,29.81,South,172,4.0,8.0,46,0.00,,,0.00,weatherlink.com 1.10,2013-08-07 18:41:00,
2013-08-07 13:56:00,97.6,73.0,29.81,South,186,3.0,10.0,45,0.00,,,0.00,weatherlink.com 1.10,2013-08-07 18:56:00,
2013-08-07 14:11:00,98.5,73.0,29.81,South,173,6.0,9.0,44,0.00,,,0.00,weatherlink.com 1.10,2013-08-07 19:11:00,
2013-08-07 14:26:00,99.4,73.0,29.80,SSE,159,3.0,11.0,43,0.00,,,0.00,weatherlink.com 1.10,2013-08-07 19:26:00,
2013-08-07 14:41:00,99.5,73.0,29.80,South,169,5.0,7.0,43,0.00,,,0.00,weatherlink.com 1.10,2013-08-07 19:41:00,
2013-08-07 14:56:00,100.2,73.0,29.79,South,178,2.0,8.0,41,0.00,,,0.00,weatherlink.com 1.10,2013-08-07 19:56:00,
2013-08-07 15:11:00,100.6,71.0,29.79,SSE,165,3.0,9.0,39,0.00,,,0.00,weatherlink.com 1.10,2013-08-07 20:11:00,
2013-08-07 15:26:00,101.3,72.0,29.78,SSW,197,3.0,7.0,39,0.00,,,0.00,weatherlink.com 1.10,2013-08-07 20:26:00,
2013-08-07 15:41:00,101.3,71.0,29.78,South,173,5.0,8.0,38,0.00,,,0.00,weatherlink.com 1.10,2013-08-07 20:41:00,
2013-08-07 15:56:00,102.2,71.0,29.77,SSE,159,3.0,10.0,37,0.00,,,0.00,weatherlink.com 1.10,2013-08-07 20:56:00,
2013-08-07 16:11:00,102.7,71.0,29.77,South,170,2.0,6.0,36,0.00,,,0.00,weatherlink.com 1.10,2013-08-07 21:11:00,
2013-08-07 16:26:00,103.4,72.0,29.76,SSE,163,4.0,7.0,36,0.00,,,0.00,weatherlink.com 1.10,2013-08-07 21:26:00,
2013-08-07 16:41:00,103.2,71.0,29.75,South,175,6.0,7.0,35,0.00,,,0.00,weatherlink.com 1.10,2013-08-07 21:41:00,
2013-08-07 16:56:00,103.0,71.0,29.75,SSE,159,3.0,7.0,35,0.00,,,0.00,weatherlink.com 1.10,2013-08-07 21:56:00,
2013-08-07 17:11:00,103.3,69.0,29.74,SSE,167,1.0,7.0,33,0.00,,,0.00,weatherlink.com 1.10,2013-08-07 22:11:00,
2013-08-07 17:26:00,103.8,70.0,29.74,South,172,2.0,6.0,34,0.00,,,0.00,weatherlink.com 1.10,2013-08-07 22:26:00,
2013-08-07 17:41:00,102.9,72.0,29.74,SSE,165,1.0,7.0,37,0.00,,,0.00,weatherlink.com 1.10,2013-08-07 22:41:00,
2013-08-07 17:56:00,103.1,71.0,29.74,SSE,154,1.0,8.0,35,0.00,,,0.00,weatherlink.com 1.10,2013-08-07 22:56:00,
2013-08-07 18:11:00,102.4,71.0,29.73,SSE,155,2.0,6.0,36,0.00,,,0.00,weatherlink.com 1.10,2013-08-07 23:11:00,
2013-08-07 18:26:00,101.9,72.0,29.73,South,173,1.0,7.0,38,0.00,,,0.00,weatherlink.com 1.10,2013-08-07 23:26:00,
2013-08-07 18:42:00,101.5,68.0,29.73,SSE,167,0.0,7.0,34,0.00,,,0.00,weatherlink.com 1.10,2013-08-07 23:42:00,
2013-08-07 18:57:00,101.8,68.0,29.73,SSE,157,1.0,7.0,33,0.00,,,0.00,weatherlink.com 1.10,2013-08-07 23:57:00,
2013-08-07 19:12:00,99.7,71.0,29.73,South,177,2.0,7.0,39,0.00,,,0.00,weatherlink.com 1.10,2013-08-08 00:12:00,
2013-08-07 19:27:00,97.9,67.0,29.72,SSE,167,2.0,11.0,37,0.00,,,0.00,weatherlink.com 1.10,2013-08-08 00:27:00,
2013-08-07 19:42:00,97.2,67.0,29.72,SSE,164,1.0,7.0,37,0.00,,,0.00,weatherlink.com 1.10,2013-08-08 00:42:00,
2013-08-07 19:57:00,96.7,67.0,29.72,SSE,161,2.0,5.0,38,0.00,,,0.00,weatherlink.com 1.10,2013-08-08 00:57:00,
2013-08-07 20:12:00,96.2,67.0,29.73,SSE,148,0.0,6.0,38,0.00,,,0.00,weatherlink.com 1.10,2013-08-08 01:12:00,
2013-08-07 20:27:00,95.4,68.0,29.73,SSE,166,3.0,4.0,40,0.00,,,0.00,weatherlink.com 1.10,2013-08-08 01:27:00,
2013-08-07 20:42:00,94.7,65.0,29.74,South,173,1.0,4.0,38,0.00,,,0.00,weatherlink.com 1.10,2013-08-08 01:42:00,
2013-08-07 20:57:00,94.2,65.0,29.75,South,184,4.0,6.0,38,0.00,,,0.00,weatherlink.com 1.10,2013-08-08 01:57:00,
2013-08-07 21:12:00,94.1,66.0,29.75,South,174,2.0,7.0,40,0.00,,,0.00,weatherlink.com 1.10,2013-08-08 02:12:00,
2013-08-07 21:27:00,93.8,67.0,29.76,SSE,168,1.0,9.0,41,0.00,,,0.00,weatherlink.com 1.10,2013-08-08 02:27:00,
2013-08-07 21:42:00,93.2,67.0,29.76,SSE,161,4.0,8.0,42,0.00,,,0.00,weatherlink.com 1.10,2013-08-08 02:42:00,
2013-08-07 21:57:00,92.8,66.0,29.76,SSE,164,2.0,10.0,42,0.00,,,0.00,weatherlink.com 1.10,2013-08-08 02:57:00,
2013-08-07 22:12:00,92.1,67.0,29.77,South,173,6.0,9.0,43,0.00,,,0.00,weatherlink.com 1.10,2013-08-08 03:12:00,
2013-08-07 22:27:00,91.7,67.0,29.77,SE,142,0.0,9.0,44,0.00,,,0.00,weatherlink.com 1.10,2013-08-08 03:27:00,
2013-08-07 22:42:00,91.3,67.0,29.78,South,169,1.0,11.0,45,0.00,,,0.00,weatherlink.com 1.10,2013-08-08 03:42:00,
2013-08-07 22:57:00,91.1,67.0,29.79,SSE,156,1.0,9.0,45,0.00,,,0.00,weatherlink.com 1.10,2013-08-08 03:57:00,
2013-08-07 23:12:00,90.4,68.0,29.79,South,171,5.0,10.0,47,0.00,,,0.00,weatherlink.com 1.10,2013-08-08 04:12:00,
2013-08-07 23:27:00,89.5,67.0,29.79,SSE,149,3.0,9.0,48,0.00,,,0.00,weatherlink.com 1.10,2013-08-08 04:27:00,
2013-08-07 23:42:00,89.1,67.0,29.79,South,174,2.0,9.0,48,0.00,,,0.00,weatherlink.com 1.10,2013-08-08 04:42:00,
2013-08-07 23:57:00,88.9,67.0,29.79,ESE,119,3.0,11.0,48,0.00,,,0.00,weatherlink.com 1.10,2013-08-08 04:57:00,